This is the latest recevied weather packets stored in our database for station/object KC3QLX. If no packets are shown the sender has not sent any weather packets the latest 10 day(s).
| Time | Temp. | Humidity | Pressure | Rain* | Wind** | Luminosity | Snow |
|---|---|---|---|---|---|---|---|
| 1778161664 | 11.67° C | 67% | 1012.2 hPa | 0 mm | - | 645 W/m² | - |
| 1778161361 | 11.67° C | 59% | 1012.4 hPa | 0 mm | - | 618 W/m² | - |
| 1778161056 | 11.67° C | 61% | 1012.2 hPa | 0 mm | - | 592 W/m² | - |
| 1778160753 | 11.11° C | 62% | 1012.3 hPa | 0 mm | - | 591 W/m² | - |
| 1778160451 | 11.11° C | 66% | 1012.3 hPa | 0 mm | - | 425 W/m² | - |
| 1778160148 | 10.56° C | 64% | 1012.2 hPa | 0 mm | - | 231 W/m² | - |
| 1778159844 | 10.56° C | 66% | 1012.3 hPa | 0 mm | - | 185 W/m² | - |
| 1778159542 | 10.56° C | 69% | 1012.3 hPa | 0 mm | - | 90 W/m² | - |
| 1778159238 | 10° C | 69% | 1012.2 hPa | 0 mm | - | 85 W/m² | - |
| 1778158936 | 10° C | 73% | 1012.5 hPa | 0 mm | - | 65 W/m² | - |
| 1778158635 | 10° C | 67% | 1012.3 hPa | 0 mm | - | 150 W/m² | - |
| 1778158332 | 10° C | 74% | 1011.9 hPa | 0 mm | - | 96 W/m² | - |
| 1778158028 | 9.44° C | 77% | 1012.3 hPa | 0 mm | - | 67 W/m² | - |
| 1778157725 | 9.44° C | 75% | 1012.1 hPa | 0 mm | - | 62 W/m² | - |
| 1778157424 | 9.44° C | 79% | 1012.4 hPa | 0 mm | - | 68 W/m² | - |
| 1778157120 | 9.44° C | 78% | 1012.4 hPa | 0 mm | - | 52 W/m² | - |
| 1778156815 | 9.44° C | 78% | 1012.2 hPa | 0 mm | - | 53 W/m² | - |
| 1778156512 | 9.44° C | 81% | 1012.2 hPa | 0 mm | - | 189 W/m² | - |
| 1778156208 | 8.89° C | 78% | 1012.2 hPa | 0 mm | - | 81 W/m² | - |
| 1778155904 | 8.89° C | 81% | 1012 hPa | 0 mm | - | 88 W/m² | - |
| 1778155600 | 8.89° C | 81% | 1012 hPa | 0 mm | - | 104 W/m² | - |
| 1778155297 | 8.33° C | 86% | 1011.9 hPa | 0 mm | - | 157 W/m² | - |
| 1778154993 | 7.78° C | 89% | 1012 hPa | 0 mm | - | 111 W/m² | - |
| 1778154689 | 7.78° C | 92% | 1012.2 hPa | 0 mm | - | 106 W/m² | - |
| 1778154385 | 7.78° C | 87% | 1012.1 hPa | 0 mm | - | 42 W/m² | - |
* Rain latest hour (hover to see other rain measurements)
** Current wind speed in m/s (hover to see current wind gust speed)